SL-16 DEB, 22579

Orbit data source: Space-Track

SL-16 DEB, 22579 is space debris in LEO originally from a launch on Fri, 26 Mar 1993 UTC launched from the Tyuratam Missile And Space Complex (TTMTR). Debris objects in space refer to the collection of defunct objects orbiting the Earth. Examples of debris include non-operational satellites, rocket bodies, and fragments generated from explosions, collisions, or faulty payload assembly.

Loading next visibility...
Identifier
22579, 1993-016G
Orbit
LEO
Country
Flag of CISCIS
Related business
Manufacturer
Unknown
Mission
Spacecraft
Bus & Motor
Unknown
Mass
Unknown
Launch date (UTC)
1993-03-26 (33 years ago)
Launch vehicle
Unknown
Launch site
Tyuratam Missile And Space Complex (TTMTR)
Object type
Payload
Rocket body
Debris
Shape & HBR
Unknown shape, 0.2 m
Radar Cross Section
Small (<0.1 m²)

Expand to show TLE details & history
Last TLE update: 13 hours ago

TLE from 13 hours ago
0 SL-16 DEB
1 22579U 93016G   25289.05530963  .00000811  00000-0  22499-3 0  9990
2 22579  71.0268 117.0359 0100746 102.3032   5.5273 14.46681913714092
Epoch: 2025-10-16T01:19Z
TLE epoch observation values (Epoch: 2025-10-16T01:19:38.752Z)
Latitude
64.22252°
Longitude
-152.77334°
Altitude
675.682 km
Speed
7.563 km/s
True Right ascension
16h 47m 50s
True Declination
64° 05' 10"
Sunlit
Object was in daylight at epoch
Visualization orbit readout
Latitude
Unknown
Longitude
Unknown
Altitude
Unknown
Speed
Unknown
Apparent Right ascension
Unknown
Apparent Declination
Unknown
Sunlit
N/A
Visualization observer readout
Local Sidereal Time
08:55:31
Azimuth
Unknown
Elevation
Unknown
Doppler factor
Unknown
Orbital elements
Apogee altitude
806.053 km
Perigee altitude
662.741 km
Semi-major axis
7,112.534 km
Eccentricity
0.01007
Inclination
71.0268°
RAAN
117.0359°
Arg. of periapsis
102.3032°
True anomaly
5.63991°
Mean anomaly
5.5273°
Eccentric anomaly
5.58346°
Mean motion
3.61832 °/min
Orbital period
99.49 mins
BSTAR
0.00022499
Loading maneuver chart data...
Computing Atmospheric mass density...
Loading historical data...
Loading historical data...
Loading historical data...
Loading historical data...
Loading historical data...
Loading historical data...
Loading historical data...

Documentation

Showing up to 5 results
|